Regional Weather Roundup
Issued by NWS

Home | Current Version | Previous Version | Graphics & Text | Print | Product List | Glossary On
Versions: 1 2 3 4 5 6 7 8 9 10 11 12 13 14 15 16 17 18 19 20 21 22 23 24 25 26 27 28 29 30 31 32 33 34 35 36 37 38 39 40 41 42 43 44 45 46 47 48 49 50
000
ASUS43 KMKX 182210
RWRWI

WISCONSIN REGIONAL WEATHER ROUNDUP
NATIONAL WEATHER SERVICE MILWAUKEE/SULLIVAN WI
400 PM CST MON DEC 18 2017

NOTE: "FAIR" INDICATES FEW OR NO CLOUDS BELOW 12,000 FEET WITH NO
SIGNIFICANT WEATHER AND/OR OBSTRUCTIONS TO VISIBILITY.

WIZ001-002-006>008-014>016-023>028-182300-
NORTHWEST WISCONSIN

CITY           SKY/WX    TMP DP  RH WIND       PRES   REMARKS
SUPERIOR ARPT  CLOUDY    35  28  78 SW7       29.57S WCI  29
ASHLAND        CLOUDY    34  28  79 S13       29.58F WCI  25
HAYWARD        CLOUDY    33  27  78 S12       29.60F WCI  24
SIREN          CLOUDY    34  28  77 SW7       29.62S WCI  28
CUMBERLAND     CLOUDY    32  28  86 S10       29.63F WCI  24
RICE LAKE      CLOUDY    33  29  86 CALM      29.65F
CHETEK         CLOUDY    32  28  86 S10       29.66F WCI  24
LADYSMITH      CLOUDY    33  29  87 S7        29.66F WCI  26
EAU CLAIRE     PTCLDY    34  28  79 SW10      29.68F WCI  26
MENOMONIE      CLOUDY    36  30  80 S10       29.68F WCI  28
NEW RICHMOND   MOCLDY    34  28  80 SW9       29.65S WCI  27
OSCEOLA        CLOUDY    35  29  80 S7        29.68S WCI  29
$$

WIZ003>005-009-010-017-018-182300-
NORTH CENTRAL WISCONSIN

CITY           SKY/WX    TMP DP  RH WIND       PRES   REMARKS
MANITOWISH WTR CLOUDY    30  30 100 S8G17     29.60F WCI  22
ARBOR VITAE    CLOUDY    32  31  96 SW9       29.62F FOG     WCI  24
WOODRUFF       CLOUDY    32  31  96 SW9       29.62F FOG     WCI  24
RHINELANDER    CLOUDY    29  28  96 SW10G20   29.65F FOG     WCI  20
EAGLE RIVER    CLOUDY    30  29  98 SW7       29.62F FOG     WCI  23
LAND O LAKES   CLOUDY    31  29  93 SW5       29.62F FOG     WCI  26
PHILLIPS       CLOUDY    30  29  96 S8        29.63F WCI  22
TOMAHAWK       CLOUDY    29  27  92 CALM      29.66F FOG
MEDFORD        CLOUDY    28  28  98 S7        29.67F FOG     WCI  21
MERRILL        CLOUDY    30  29  97 SW3       29.69F FOG
$$

WIZ029-030-035-036-043>047-182300-
CENTRAL WISCONSIN

CITY           SKY/WX    TMP DP  RH WIND       PRES   REMARKS
WAUSAU         CLOUDY    30  28  92 S8        29.68F FOG     WCI  22
MOSINEE        NOT AVBL
MARSHFIELD     CLOUDY    29  27  92 S9        29.69F WCI  20
STEVENS POINT  CLOUDY    29  28  96 S7        29.72F FOG     WCI  22
WAUPACA        CLOUDY    35  29  80 SW3       29.75F
WAUTOMA        CLOUDY    34  27  75 S5        29.76F WCI  30
WISC RAPIDS    PTCLDY    32  27  81 S6        29.74F WCI  26
CAMP DOUGLAS   PTCLDY    35  28  75 SW5       29.75S WCI  31
$$

WIZ011>013-019>022-031-037>040-048>050-182300-
NORTHEAST WISCONSIN

CITY           SKY/WX    TMP DP  RH WIND       PRES   REMARKS
ANTIGO         CLOUDY    28  28 100 SW7       29.68F FOG     WCI  20
SHAWANO        CLOUDY    33  29  88 SW6       29.74F WCI  27
OCONTO         CLOUDY    32  28  84 SW7       29.74F WCI  25
STURGEON BAY   CLOUDY    32  29  88 W10       29.75S FOG     WCI  24
GREEN BAY      CLOUDY    34  28  79 SW6       29.75F WCI  29
MANITOWOC      CLOUDY    34  29  82 SW6       29.78S WCI  29
APPLETON       CLOUDY    34  28  80 SW7       29.74F WCI  28
CLINTONVILLE   NOT AVBL
OSHKOSH        CLOUDY    34  29  82 S6        29.75F HAZE    WCI  29
$$

WIZ032>034-041-042-053>061-182300-
SOUTHWEST WISCONSIN

CITY           SKY/WX    TMP DP  RH WIND       PRES   REMARKS
LA CROSSE      PTCLDY    37  30  75 S5        29.75S WCI  33
SPARTA         PTCLDY    36  30  79 S3        29.76R
VIROQUA        PTCLDY    37  32  81 CALM      29.75R
BOSCOBEL       CLEAR     43  31  62 SW8       29.79R
PRAIRIE DU CHI CLEAR     43  30  59 SW8G16    29.79R
PLATTEVILLE    CLEAR     41  35  77 SW12      29.80S
$$

WIZ056-057-062-063-064-067-068-182300-
SOUTH CENTRAL WISCONSIN

CITY           SKY/WX    TMP DP  RH WIND       PRES   REMARKS
REEDSBURG      CLOUDY    38  29  71 S8        29.75F WCI  32
BARABOO/DELLS  CLOUDY    37  28  71 S9        29.75F WCI  30
LONE ROCK      CLEAR     40  31  70 S8        29.78F HAZE    WCI  34
MINERAL POINT  CLEAR     41  34  75 S12       29.78S
MADISON        MOCLDY    38  30  73 SW6       29.79F WCI  33
MIDDLETON      CLEAR     40  31  72 S7        29.78F WCI  35
WATERTOWN      CLEAR     35  32  90 SW7       29.80F WCI  29
MONROE         CLEAR     37  32  81 S9        29.80S WCI  31
JANESVILLE     PTCLDY   N/A N/A N/A SW9       29.82F
$$

WIZ051-052-058>065-066-070>072-182300-
SOUTHEAST WISCONSIN

CITY           SKY/WX    TMP DP  RH WIND       PRES   REMARKS
MILWAUKEE      PTCLDY    39  33  79 W10       29.82S WCI  32
WAUKESHA       CLEAR     34  30  86 W6        29.81F WCI  29
MILWAUKEE/TIMM PTCLDY    36  30  80 SW12      29.82F WCI  27
RACINE         CLEAR     40  33  76 W8        29.84S WCI  34
BURLINGTON     CLEAR     38  31  73 SW9       29.82S WCI  32
KENOSHA        CLEAR     42  30  62 SW12      29.83S
FOND DU LAC    MOCLDY    35  28  75 S9        29.77F WCI  28
SHEBOYGAN      PTCLDY    34  30  85 SW10      29.78F WCI  26
WEST BEND      CLOUDY    34  32  93 SW8       29.79S WCI  27
JUNEAU         CLOUDY    34  31  89 S6        29.79F WCI  29
$$

LSZ147-162-182300-
LAKE SUPERIOR

STATION/POSITION TIME  TEMP    WIND        PRES    WAVE
                       AIR SEA DIR/SP/G            HT/PER
                 (UTC) (F)     (DEG/KT/KT) (MB)    (FT/S)
DEVILS ISLAND    2100   35     230/ 13/ 16 1001.8F
SAXON HARBOR     2140   36     190/  9/ 13 1001.4F
$$

LMZ867-665-643>646-182300-
LAKE MICHIGAN

STATION/POSITION TIME  TEMP    WIND        PRES    WAVE
                       AIR SEA DIR/SP/G            HT/PER
                 (UTC) (F)     (DEG/KT/KT) (MB)    (FT/S)
NORTHPORT PIER   2140   33     260/  5/ 12 1007.1R
KEWAUNEE LAKESHO 2142   34     250/  8/ 13 1007.4R
SHEBOYGAN LAKESH 2200   35     230/  8/  9 1009.2F
PORT WASHINGTON  2140   37     250/  7/ 13 1010.5R
MILWAUKEE LAKESH 2150   38     230/ 11/ 15   N/A
KENOSHA   LAKESH 2200   43     250/ 13/ 17 1010.5
$$

TC  - TEMPERATURE IN CELSIUS
VSB - VISIBILITY IN STATUTE MILES
WCI - WIND CHILL INDEX
HX  - HEAT INDEX





USA.gov is the U.S. government's official web portal to all federal, state and local government web resources and services.